TIME,DELAY(SENSOR),PRES,OXYGEN,RAWTEMP,T(OPTODE),TCPHASE,FLUOR,BETA(BETA700),BETA(BETA412),BETA(BETA440),CDOM,C(CSC),ED(ED411.90),ED(ED443.80),ED(ED489.40),ED(ED554.70),LU(LU412.20),LU(LU443.80),LU(LU489.40),LU(LU555.00),COMP,TILTX,TILTY,CHECK
1369089521,5805,855.7299804687500000,159.4465942382812500,370.0044860839844000,11.5152397155761720,38.5343284606933600,52,106,95,79,79,10524,2146959012,2147518180,2147281051,2147487963,2147081188,2146931428,2147693421,2147124251,3197,-1,9,12793
1369093118,5805,990.1799926757812000,155.2563934326172000,454.5560913085937500,8.9328508377075200,40.2368583679199200,53,117,100,82,80,10500,2146961782,2147522121,2147289700,2147501001,2147083017,2146926747,2147710683,2147121042,3075,-1,8,3494
1369096718,5805,1032.9599609375000000,150.7178955078125000,483.0827026367187500,8.0534009933471680,41.0749282836914060,53,136,102,83,79,10474,2146961618,2147516141,2147293632,2147509046,2147086226,2146922002,2147715483,2147122084,3084,-1,8,11741
1369100318,5805,1039.9300537109375000,161.6623992919922000,484.9649963378906000,7.9951992034912110,40.2551689147949200,53,170,103,85,80,10478,2146960777,2147519661,2147292763,2147512045,2147087597,2146928548,2147717120,2147120978,521,-1,8,280
1369103918,5804,1037.7900390625000000,155.3793945312500000,486.9957885742187500,7.9323821067810060,40.7725105285644500,53,125,105,84,80,10470,2146963858,2147516745,2147292589,2147512000,2147086985,2146928969,2147715245,2147123684,3506,-1,8,53224
1369107518,5805,1036.4499511718750000,164.3659973144531200,483.9778137207031000,8.0257282257080080,40.0373382568359400,53,134,104,85,80,10471,2146956580,2147516882,2147294573,2147505435,2147082688,2146926299,2147717257,2147122267,390,0,8,42581
1369111118,5806,1041.5999755859375000,162.5074005126953000,483.7116088867187500,8.0339603424072270,40.1708984375000000,53,131,105,84,81,10473,2146962596,2147516864,2147295853,2147510162,2147087378,2146923163,2147715538,2147121618,617,-1,8,37511
1369114718,5808,1043.5000000000000000,152.8150024414062500,481.8392944335937500,8.0918369293212890,40.8874092102050800,54,141,103,84,80,10468,2146961408,2147519908,2147294107,2147508452,2147084178,2146926189,2147716928,2147120804,572,-1,8,46501
1369118318,5804,1028.8199462890625000,143.1707000732422000,473.5397033691406000,8.3481426239013670,41.5332298278808600,53,134,105,85,80,10466,2146958089,2147520045,2147293074,2147506797,2147086528,2146922560,2147716388,2147120758,185,-1,8,13015
1369121918,5803,1026.0999755859375000,151.8414001464843800,472.1039123535156000,8.3924398422241210,40.8004493713378900,53,131,121,85,79,10463,2146963108,2147520859,2147292772,2147509421,2147083474,2146927030,2147711405,2147119853,2984,-1,8,49084
1369125518,5807,1025.5899658203125000,152.8294067382812500,472.2792053222656000,8.3870306015014650,40.7242584228515600,53,135,104,86,80,10459,2146962962,2147519414,2147293577,2147508306,2147087561,2146923584,2147712923,2147122514,2683,0,8,7057
1369129118,5805,1025.9000244140625000,150.4765930175781200,472.4070129394531000,8.3830881118774410,40.9148216247558600,53,134,103,86,80,10457,2146959753,2147517266,2147292388,2147507510,2147086354,2146933421,2147713920,2147122642,3057,-1,8,23610
1369132718,5806,1030.8100585937500000,154.3437957763672000,472.2703857421875000,8.3873043060302730,40.6045494079589840,53,137,103,84,79,10456,2146962998,2147519680,2147291721,2147506971,2147085888,2146929718,2147709046,2147120512,370,0,8,56042
1369136318,5805,1030.2600097656250000,153.9940032958984400,472.5479125976562500,8.3787441253662110,40.6378517150878900,53,125,103,85,80,10453,2146962843,2147517604,2147291830,2147504502,2147086912,2146924461,2147710985,2147121133,3479,-1,8,29404
1369139918,5808,1033.4300537109375000,150.7722930908203000,471.9525146484375000,8.3971109390258790,40.8828086853027340,53,130,102,86,80,10452,2146963053,2147520338,2147290733,2147508160,2147085440,2146925558,2147709595,2147125906,37,0,8,33742
1369143518,5804,1005.1500244140625000,149.2384948730468800,466.1542968750000000,8.5758666992187500,40.9105415344238300,54,169,103,84,79,10448,2146960027,2147520164,2147290532,2147505572,2147085814,2146930203,2147709869,2147123465,3248,0,8,44555
1369147118,5803,1005.7600097656250000,145.9160003662109400,467.4702148437500000,8.5353126525878900,41.2047386169433600,54,129,102,83,80,10436,2146962697,2147518326,2147289334,2147507346,2147087085,2146929417,2147710171,2147119808,3533,-1,8,2109
1369150718,5805,1004.3200073242188000,154.2295989990234400,466.5882873535156000,8.5624914169311520,40.5185394287109400,53,126,102,85,80,10443,2146961737,2147521261,2147291803,2147508461,2147089033,2146929810,2147710381,2147121938,3146,-1,8,45935
1369154318,5805,1004.7500000000000000,155.3943939208984400,467.7116088867187500,8.5278749465942380,40.4457511901855500,53,128,104,85,80,10441,2146961627,2147519488,2147290468,2147505718,2147087433,2146925403,2147714002,2147122075,3313,-1,8,6983
1369157918,5807,1006.5300292968750000,152.2693023681640600,466.6343078613281000,8.5610752105712890,40.6744499206543000,53,131,102,84,80,10438,2146960640,2147518573,2147288283,2147507108,2147086272,2146934235,2147711670,2147123812,3549,-1,8,44714
1369161518,5804,1008.7000122070312000,154.3697052001953000,466.2521057128906000,8.5728521347045900,40.5014991760253900,53,129,100,84,80,10435,2146962349,2147519296,2147293403,2147505280,2147085385,2146925138,2147712118,2147123757,3348,-1,8,47373
1369165118,5803,1010.4500122070312000,152.1894073486328000,465.3320007324219000,8.6012020111083980,40.6592292785644500,52,126,102,82,80,10434,2146962797,2147515712,2147287241,2147503122,2147084306,2146927094,2147715328,2147121069,3517,-1,8,62244
1369168718,5807,1009.5599975585938000,145.9786987304687500,465.6304016113281000,8.5920085906982420,41.1682701110839840,53,136,102,85,80,10432,2146958244,2147520109,2147291099,2147504640,2147087350,2146926500,2147715410,2147119753,265,-1,8,22395
1369172318,5805,1015.6500244140625000,155.6844024658203000,464.4502868652344000,8.6283626556396480,40.3678703308105500,52,129,102,82,79,10427,2146960950,2147520649,2147291492,2147503862,2147083547,2146924562,2147711341,2147123730,3455,-1,8,8615
1369175918,5807,1016.9000244140625000,152.8786926269531200,463.0741882324219000,8.6707439422607420,40.5664100646972660,52,119,101,83,80,10430,2146960566,2147517458,2147292041,2147504950,2147084553,2146921060,2147711122,2147124736,59,-1,8,55919
1369179518,5801,1018.1400146484375000,154.3937072753906200,461.1228027343750000,8.7308263778686520,40.4133491516113300,53,126,102,83,80,10425,2146961682,2147517906,2147290413,2147505664,2147087469,2146929206,2147710464,2147121444,3008,-1,8,29918
1369183118,5804,1019.3400268554688000,153.4201965332031200,460.6785888671875000,8.7444982528686520,40.4831085205078100,54,125,101,82,80,10422,2146961883,2147518701,2147287442,2147506560,2147086400,2146927204,2147711844,2147122816,2864,-1,8,42990
1369186718,5805,1019.2199707031250000,153.9593048095703000,461.1701965332031000,8.7293672561645500,40.4495391845703100,53,128,103,84,81,10423,2146960457,2147520009,2147289334,2147501769,2147085385,2146929554,2147710336,2147121984,3349,-1,8,50019
1369190318,5807,1016.2800292968750000,149.8863067626953000,462.4266967773437500,8.6906824111938480,40.7951087951660160,53,122,100,85,80,10416,2146964352,2147516626,2147289280,2147504667,2147087734,2146925504,2147712118,2147123949,213,-1,8,27480
1369193918,5807,1017.6400146484375000,151.0861968994140600,463.6005859375000000,8.6545305252075200,40.7191810607910160,53,133,102,82,80,10417,2146959936,2147521435,2147290779,2147506148,2147086592,2146925979,2147715337,2147120173,3589,-1,8,43658
1369197518,5805,1012.8900146484375000,142.6766052246093800,465.0678100585937500,8.6093406677246100,41.4344787597656250,53,135,103,83,80,10376,2146962249,2147518710,2147291090,2147506916,2147085942,2146926957,2147714322,2147122770,3382,-1,8,39859
1369201118,5806,1011.3099975585938000,148.5218048095703000,467.1322021484375000,8.5457305908203120,40.9836311340332000,53,129,103,85,79,10374,2146959908,2147518564,2147290523,2147505536,2147086427,2146927835,2147711725,2147121408,350,-1,8,42310
1369204718,5805,1013.9099731445312000,153.5968933105468800,467.5560913085937500,8.5326671600341800,40.5840492248535160,53,123,103,82,79,10368,2146961398,2147518189,2147291172,2147506633,2147085458,2146928027,2147713892,2147122230,3363,-1,8,49260
1369208318,5804,1012.8099975585938000,154.2704010009765600,467.5385131835937500,8.5332088470458980,40.5315208435058600,53,133,101,83,80,10365,2146961005,2147517732,2147292306,2147509229,2147084580,2146931227,2147712320,2147120009,3427,0,8,28827
1369211918,5807,1023.0800170898438000,155.8724060058593800,464.4926147460937500,8.6270599365234380,40.3539199829101560,53,134,113,86,80,10365,2146960996,2147516864,2147293394,2147506569,2147087113,2146924370,2147711552,2147121920,1069,-1,8,15941
1369215518,5804,1022.7600097656250000,154.6004943847656200,462.4139099121094000,8.6910772323608400,40.4191894531250000,52,130,104,83,80,10366,2146963026,2147519725,2147291090,2147505334,2147090240,2146928768,2147709714,2147121865,3488,-1,8,6088
1369219118,5809,1021.6099853515625000,153.1392059326172000,460.7914123535156000,8.7410259246826170,40.5071907043457000,53,133,103,84,80,10355,2146962477,2147519753,2147289865,2147506898,2147087945,2146933229,2147709833,2147121654,226,-1,8,10825
1369222718,5800,1020.9600219726562000,154.4033966064453000,462.0093994140625000,8.7035312652587890,40.4278411865234400,53,126,103,82,80,10360,2146960996,2147518857,2147288493,2147504969,2147086875,2146925403,2147709522,2147125440,3001,-1,8,28822
1369226318,5810,1025.8199462890625000,154.9958038330078000,459.8604125976562500,8.7696828842163090,40.3459091186523440,54,125,101,83,81,10349,2146959524,2147519451,2147285952,2147505362,2147087634,2146925878,2147709147,2147123812,26,-1,8,57264
1369229918,5804,1015.2899780273438000,152.8238067626953000,462.5087890625000000,8.6881551742553710,40.5617713928222660,53,134,100,85,80,10351,2146964864,2147516050,2147290724,2147504758,2147085184,2146923501,2147710473,2147127140,3325,-1,8,32194
1369230655,5804,1022.4799804687500000,154.5301055908203000,463.5169067382812500,8.6571111679077150,40.4426307678222660,53,133,105,85,80,10386,2146963218,2147520777,2147291254,2147506532,2147086848,2146924827,2147708306,2147120621,2545,-1,8,63959
